Location: ????? ????
(37.9717°N, 23.4051°E)
Time: 03:32:43
(UTC+00:00)

ERS-1 Rocket - Pass Details

Date: 18 April 2024
Orbit: 751 x 754 km, 98.3° (Epoch: 20 May)

Event Time Altitude Azimuth Distance (km) Brightness Sun altitude
Exits shadow 19:51:24 66° 321° (NW) 819 3.2 -29.0°
Drops below altitude 10° 19:55:47 10° 345° (NNW) 2,281 6.2 -29.6°
Sets 19:58:05 0° 346° (NNW) 3,210 7.1 -29.9°
